This is the latest recevied weather packets stored in our database for station/object KI4HRG. If no packets are shown the sender has not sent any weather packets the latest 10 day(s).
| Time | Temp. | Humidity | Pressure | Rain* | Wind** | Luminosity | Snow |
|---|---|---|---|---|---|---|---|
| 1787942228 | 33.33° C | 47% | 1016.9 hPa | 0 mm | - | 599 W/m² | - |
| 1787941923 | 32.78° C | 48% | 1016.9 hPa | 0 mm | - | 592 W/m² | - |
| 1787941617 | 32.78° C | 48% | 1017.1 hPa | 0 mm | - | 586 W/m² | - |
| 1787941317 | 32.22° C | 51% | 1017.2 hPa | 0 mm | - | 548 W/m² | - |
| 1787941016 | 32.78° C | 51% | 1017.2 hPa | 0 mm | - | 125 W/m² | - |
| 1787940715 | 32.78° C | 49% | 1017.2 hPa | 0 mm | - | 272 W/m² | - |
| 1787940414 | 33.33° C | 48% | 1017.3 hPa | 0 mm | - | 341 W/m² | - |
| 1787940113 | 33.33° C | 49% | 1017.2 hPa | 0 mm | - | 765 W/m² | - |
| 1787939808 | 33.33° C | 50% | 1017.5 hPa | 0 mm | - | 773 W/m² | - |
| 1787939508 | 33.89° C | 51% | 1017.3 hPa | 0 mm | - | 781 W/m² | - |
| 1787939202 | 33.33° C | 49% | 1017.4 hPa | 0 mm | - | 726 W/m² | - |
| 1787938897 | 31.67° C | 54% | 1017.4 hPa | 0 mm | - | 425 W/m² | - |
| 1787938596 | 32.22° C | 53% | 1017.4 hPa | 0 mm | - | 323 W/m² | - |
| 1787938292 | 32.78° C | 53% | 1017.4 hPa | 0 mm | - | 185 W/m² | - |
| 1787937987 | 32.78° C | 51% | 1017.3 hPa | 0 mm | - | 587 W/m² | - |
| 1787937682 | 32.78° C | 51% | 1017.4 hPa | 0 mm | - | 714 W/m² | - |
| 1787937379 | 32.78° C | 52% | 1017.4 hPa | 0 mm | - | 702 W/m² | - |
| 1787937075 | 32.22° C | 52% | 1017.3 hPa | 0 mm | - | 684 W/m² | - |
| 1787936774 | 32.22° C | 51% | 1017.4 hPa | 0 mm | - | 682 W/m² | - |
| 1787936469 | 32.22° C | 54% | 1017.5 hPa | 0 mm | - | 725 W/m² | - |
| 1787936168 | 32.78° C | 55% | 1017.3 hPa | 0 mm | - | 714 W/m² | - |
| 1787935864 | 32.22° C | 54% | 1017.6 hPa | 0 mm | - | 740 W/m² | - |
| 1787935559 | 32.22° C | 57% | 1017.4 hPa | 0 mm | - | 760 W/m² | - |
| 1787935255 | 31.67° C | 56% | 1017.5 hPa | 0 mm | - | 716 W/m² | - |
| 1787934950 | 31.67° C | 57% | 1017.5 hPa | 0 mm | - | 191 W/m² | - |
* Rain latest hour (hover to see other rain measurements)
** Current wind speed in m/s (hover to see current wind gust speed)